User: anonymous   Login
Location: Unspecified
(48.2082°N, 0.0000°E)
Time: 12:38:47
(UTC+00:00)
Language:

S-56A Canister/Altair - Orbit

View from above orbital plane
View from above orbital plane
View from above satellite
View from above satellite

Ground track
Ground track

The orbit data is extracted from the following two-line orbital elements,

1    82U 61004B   20295.11453474 -.00000099 +00000-0 -43478-4 0  9998
2    82 038.8592 093.0845 1175216 330.0489 023.7694 12.26057022823232
Epoch (UTC): 21 October 2020 02:44:55
Eccentricity: 0.1175216
inclination: 38.8592°
perigee height: 632 km
apogee height: 2500 km
right ascension of ascending node: 93.0845°
argument of perigee: 330.0489°
revolutions per day: 12.26057022
mean anomaly at epoch: 23.7694°
orbit number at epoch: 82323

The dashed part of the orbit path shows where the satellite is in the earth's shadow,  

DLR